Weather in Esenguly

Turkmenistan     37°28′04″N   53°58′36″E
temp.,
°C
wind,
m/s
gust,
m/s
humid.,
%
clouds,
%
prec.,
mm/h
press.,
hPa
HPBL,
m
12 august, fri
fri1223:00+33ene712180 0.0 1007260
02:00+31ne510230 0.0 1007147
05:00+28ne44260 0.0 100748
08:00+28ne12270 0.0 1009111
11:00+32w43310 0.0 1009697
14:00+34w54240 0.0 1008957
17:00+34w54250 0.0 1007576
20:00+31wsw56350 0.0 1007314
13 august, sat
sat1323:00+29wsw68520 0.0 1008272
02:00+28sw68600 0.0 1008245
05:00+28sw68660 0.0 1008246
08:00+28sw67610 0.0 1009563
11:00+31sw65460 0.0 1010904
14:00+33wsw43360 0.0 10091156
17:00+34wsw43330 0.0 10071141
20:00+31w55470 0.0 1007190
14 august, sun
sun1423:00+29wnw44620 0.0 1007255
02:00+28w45670 0.0 1006155
05:00+28w44690 0.0 100692
08:00+28wsw44630 0.0 1007311
11:00+31w42470 0.0 1007780
14:00+34w33362 0.0 10061271
17:00+35w45340 0.0 10051102
20:00+31wnw55490 0.0 1004189
15 august, mon
mon1523:00+31nw45450 0.0 1005107
02:00+31nw22350 0.0 100423
05:00+29ne23320 0.0 100428
08:00+30ne13410 0.0 1006117
11:00+34sse23340 0.0 1007685
14:00+37s23250 0.0 10061642
17:00+37w54250 0.0 10051152
20:00+34w56330 0.0 1006194
16 august, tue
tue1623:00+31wsw45520 0.0 100691
02:00+30ssw12510 0.0 100620
05:00+29ssw33600 0.0 100632
08:00+29wsw33620 0.0 1008133
11:00+33wsw32390 0.0 1009650
14:00+37w33260 0.0 10081560
17:00+36w64290 0.0 1007773
20:00+34w56310 0.0 1008189